Location: Home
(42.5358°N, 72.7383°W)
Time: 11:43:22
(UTC-05:00)

A-11 Canister half - Pass Details

Date: 04 December 2021
Orbit: 1524 x 1684 km, 47.3° (Epoch: 19 January)

Event Time Altitude Azimuth Distance (km) Brightness Sun altitude
Rises 23:56:14 0° 209° (SSW) 4,905 - -69.5°
Reaches altitude 10° 23:59:36 10° 202° (SSW) 3,930 - -69.4°
Maximum altitude 00:08:52 43° 136° (SE) 2,238 - -68.9°
Drops below altitude 10° 00:18:07 10° 70° (ENE) 3,929 - -68.3°
Exits shadow 00:20:14 - 66° (ENE) 4,543 11.7 -68.2°
Sets 00:21:27 0° 64° (ENE) 4,905 11.9 -68.1°
